Terug naar catalogus

STARLINK-35498

ActiefCommunicatieVLEO
NORAD 67017·PAYLOAD·🇺🇸 United States

Gelanceerd Dec 10, 2025 vanaf Vandenberg Space Force Base

Loading…

Volgende Passages (komende 24 uur)

TLE

VersSource: CelesTrak SupGP

Epoch: Sep 15, 2026, 02:41 UTC

1 67017C 25293Q   26258.11229167  .00073699  00000+0  61756-2 0  2582
2 67017  70.0018 336.7778 0003551 266.8042  84.9183 14.98296718    11

Volg STARLINK-35498 in realtime met AllMySat

Download on the App Store